EW2351 Cozumel MX current weather conditions

sailwx.info

Wind from 336 at 4 knots gusting 9

Air temperature 30.6° C
Dewpoint 18.6° C

Last reported at 2019-Sep-17 20:01 UTC.
Time now 2019-Sep-17 20:41 UTC

Location: N 20°33' W 086°55'.
View on Google Maps.

See reports from other nearby stations

  
Tides and Currents Weather Stations Pressure Air Temp Water Temp Dewpoint Dewpoint Depression Visibility Wind Speed Wind Dir Waves Ship Positions
date/time (UTC)wind fromknots sea level pressurealtimeterstation pressurevisibilityair tempwater tempwave heightnotes
2019-Sep-17 20:01 336 4 gusting 9 30.6
2019-Sep-17 19:46 041 4 gusting 7 30.0
2019-Sep-17 19:30 059 2 gusting 8 29.4
2019-Sep-17 19:16 356 4 gusting 8 29.4
2019-Sep-17 19:00 044 0 gusting 6 28.9
2019-Sep-17 18:45 065 2 gusting 8 28.3
2019-Sep-17 18:30 088 2 gusting 9 28.3
2019-Sep-17 18:15 065 3 gusting 7 28.3
2019-Sep-17 18:00 058 3 gusting 10 28.3
2019-Sep-17 17:45 062 0 gusting 10 27.8
2019-Sep-17 17:30 353 2 gusting 7 27.8
2019-Sep-17 17:15 008 3 gusting 11 28.3
2019-Sep-17 17:00 044 4 gusting 8 27.2
2019-Sep-17 16:45 059 3 gusting 8 27.2
2019-Sep-17 16:30 071 0 gusting 7 27.2
2019-Sep-17 16:02 051 3 gusting 9 26.1
2019-Sep-17 15:47 039 4 gusting 9 26.1
2019-Sep-17 15:32 045 4 gusting 9 25.6
2019-Sep-17 15:16 028 3 gusting 8 24.4
2019-Sep-17 15:01 063 3 gusting 8 24.4
2019-Sep-17 14:46 048 4 gusting 8 25.0
2019-Sep-17 14:31 070 1 gusting 4 24.4
2019-Sep-17 14:17 065 2 gusting 5 23.9
2019-Sep-17 14:01 044 3 gusting 6 23.9
2019-Sep-17 13:46 013 1 gusting 4 23.3
2019-Sep-17 13:32 050 0 gusting 2 21.7
2019-Sep-17 13:17 069 21.7
2019-Sep-17 13:01 095 21.1
2019-Sep-17 12:47 020 21.1
2019-Sep-17 12:31 031 21.1
2019-Sep-17 12:16 014 21.1
2019-Sep-17 12:01 335 21.1
2019-Sep-17 11:46 335 21.1
2019-Sep-17 11:32 298 21.1
2019-Sep-17 11:17 284 21.1
2019-Sep-17 11:01 284 21.7
2019-Sep-17 10:45 284 21.1
2019-Sep-17 10:31 284 21.7
2019-Sep-17 10:16 284 21.7
2019-Sep-17 10:00 284 21.7
2019-Sep-17 09:46 284 22.2
2019-Sep-17 09:30 165 21.7
2019-Sep-17 09:15 165 21.7
2019-Sep-17 09:00 165 22.2
2019-Sep-17 08:45 166 22.2
2019-Sep-17 08:30 166 22.8
2019-Sep-17 08:15 165 22.8
2019-Sep-17 08:00 138 22.8
2019-Sep-17 07:45 124 22.8
2019-Sep-17 07:30 124 23.3
2019-Sep-17 07:15 129 23.3
2019-Sep-17 07:00 114 23.3
2019-Sep-17 06:45 114 23.3
2019-Sep-17 06:30 072 23.9
2019-Sep-17 06:17 139 24.4
2019-Sep-17 06:02 141 24.4
2019-Sep-17 05:47 141 25.0
2019-Sep-17 05:31 142 25.0
2019-Sep-17 05:16 133 25.0
2019-Sep-17 05:01 153 25.6
2019-Sep-17 04:46 165 0 gusting 3 25.6
2019-Sep-17 04:32 127 2 gusting 4 26.1
2019-Sep-17 04:17 140 2 gusting 6 26.7
2019-Sep-17 04:01 122 1 gusting 7 26.7
2019-Sep-17 03:47 114 1 gusting 6 27.2
2019-Sep-17 03:31 120 2 gusting 7 27.2
2019-Sep-17 03:16 133 3 gusting 6 27.8
2019-Sep-17 03:01 118 2 gusting 6 28.3
2019-Sep-17 02:46 145 28.3
2019-Sep-17 02:32 127 28.3
2019-Sep-17 02:16 108 28.3
2019-Sep-17 02:02 102 28.3
2019-Sep-17 01:46 094 28.9
2019-Sep-17 01:31 110 29.4
2019-Sep-17 01:15 098 0 gusting 1 29.4
2019-Sep-17 01:01 115 30.0
2019-Sep-17 00:46 096 30.6
2019-Sep-17 00:32 071 0 gusting 6 31.7
2019-Sep-17 00:16 122 3 gusting 7 31.7
2019-Sep-17 00:01 113 2 gusting 7 32.2
2019-Sep-16 23:46 079 2 gusting 7 32.8
2019-Sep-16 23:31 106 5 gusting 10 33.3
2019-Sep-16 23:16 096 4 gusting 7 33.3
2019-Sep-16 23:01 046 3 gusting 10 33.3
2019-Sep-16 22:46 117 4 gusting 10 33.9
2019-Sep-16 22:31 117 4 gusting 8 33.3
2019-Sep-16 22:16 067 4 gusting 9 33.9
2019-Sep-16 22:01 062 1 gusting 10 33.9
2019-Sep-16 21:45 065 4 gusting 13 33.3
2019-Sep-16 21:31 086 2 gusting 11 33.9
2019-Sep-16 21:15 072 5 gusting 13 33.3
2019-Sep-16 21:01 091 3 gusting 9 33.9
2019-Sep-16 20:45 069 5 gusting 12 33.3
2019-Sep-16 20:30 122 4 gusting 10 33.3
2019-Sep-16 20:15 064 7 gusting 13 33.3
2019-Sep-16 20:00 041 6 gusting 10 33.3
2019-Sep-16 19:45 139 4 gusting 9 33.3
2019-Sep-16 19:30 052 7 gusting 15 33.9
2019-Sep-16 19:15 066 6 gusting 12 32.2
2019-Sep-16 19:00 081 6 gusting 11 33.3
2019-Sep-16 18:47 014 6 gusting 10 31.7
2019-Sep-16 18:32 050 6 gusting 10 31.7
2019-Sep-16 18:16 128 4 gusting 8 32.2
2019-Sep-16 18:01 129 2 gusting 6 30.6
2019-Sep-16 17:45 072 4 gusting 7 31.1
2019-Sep-16 17:30 003 4 gusting 10 31.7
2019-Sep-16 17:16 318 2 gusting 8 31.7
2019-Sep-16 17:00 048 3 gusting 10 31.1
2019-Sep-16 16:45 032 1 gusting 10 31.1
2019-Sep-16 16:30 075 2 gusting 9 30.0
2019-Sep-16 16:15 357 2 gusting 8 30.6
2019-Sep-16 16:00 003 0 gusting 8 30.6
2019-Sep-16 15:45 029 1 gusting 7 30.0
2019-Sep-16 15:31 032 2 gusting 6 29.4
2019-Sep-16 15:16 042 2 gusting 7 28.9
2019-Sep-16 15:01 008 2 gusting 5 28.3
2019-Sep-16 14:46 319 4 gusting 9 27.8
2019-Sep-16 14:31 330 2 gusting 6 27.8
2019-Sep-16 14:16 335 3 gusting 8 27.2
2019-Sep-16 14:02 295 3 gusting 9 26.7
2019-Sep-16 13:46 327 1 gusting 5 26.1
2019-Sep-16 13:30 339 25.0
2019-Sep-16 13:16 320 24.4
2019-Sep-16 13:01 311 23.3
2019-Sep-16 12:47 347 23.3
2019-Sep-16 12:30 004 22.8
2019-Sep-16 12:16 319 22.8
2019-Sep-16 12:01 346 22.8
2019-Sep-16 11:46 330 22.8
2019-Sep-16 11:31 015 22.8
2019-Sep-16 11:15 019 22.8
2019-Sep-16 11:01 326 22.8
2019-Sep-16 10:45 326 23.3
2019-Sep-16 10:31 315 23.3
2019-Sep-16 10:16 276 23.3
2019-Sep-16 10:00 248 23.3
2019-Sep-16 09:45 276 23.3
2019-Sep-16 09:30 262 23.3
2019-Sep-16 09:15 246 0 gusting 2 23.9
2019-Sep-16 09:00 242 0 gusting 2 23.9
2019-Sep-16 08:45 248 1 gusting 4 24.4
2019-Sep-16 08:30 251 2 gusting 4 24.4
2019-Sep-16 08:15 250 2 gusting 5 24.4
2019-Sep-16 08:00 248 2 gusting 4 24.4
2019-Sep-16 07:45 252 2 gusting 5 24.4
2019-Sep-16 07:30 227 1 gusting 3 24.4
2019-Sep-16 07:17 243 1 gusting 4 24.4
2019-Sep-16 07:02 251 2 gusting 4 24.4
2019-Sep-16 06:46 243 2 gusting 6 25.0
2019-Sep-16 06:32 240 2 gusting 4 25.0
2019-Sep-16 06:16 217 2 gusting 6 25.0
2019-Sep-16 06:02 209 1 gusting 4 25.0
2019-Sep-16 05:45 199 2 gusting 6 25.0
2019-Sep-16 05:32 224 2 gusting 5 25.6
2019-Sep-16 05:15 183 1 gusting 5 25.6
2019-Sep-16 05:01 217 0 gusting 4 26.1
2019-Sep-16 04:46 186 1 gusting 3 26.1
2019-Sep-16 04:31 169 0 gusting 2 26.7
2019-Sep-16 04:16 164 0 gusting 1 26.7
2019-Sep-16 04:01 149 0 gusting 1 26.7
2019-Sep-16 03:46 160 27.2
2019-Sep-16 03:31 133 27.2
2019-Sep-16 03:15 128 27.2
2019-Sep-16 03:01 140 27.8
2019-Sep-16 02:45 163 0 gusting 1 27.8
2019-Sep-16 02:31 127 27.8
2019-Sep-16 02:16 122 27.8
2019-Sep-16 02:01 122 28.3
2019-Sep-16 01:45 115 28.3
2019-Sep-16 01:30 129 0 gusting 3 28.9
2019-Sep-16 01:16 134 0 gusting 3 29.4
2019-Sep-16 01:01 139 0 gusting 2 30.0
2019-Sep-16 00:45 098 1 gusting 4 30.6
2019-Sep-16 00:31 128 0 gusting 3 30.6
2019-Sep-16 00:17 113 0 gusting 5 31.1
2019-Sep-16 00:00 105 3 gusting 8 31.7
2019-Sep-15 23:45 111 2 gusting 5 32.2
2019-Sep-15 23:30 101 4 gusting 8 32.2
2019-Sep-15 23:15 134 2 gusting 6 32.2
2019-Sep-15 23:00 117 2 gusting 8 32.2
2019-Sep-15 22:45 082 6 gusting 12 32.8
2019-Sep-15 22:31 116 3 gusting 9 32.8
2019-Sep-15 22:16 116 1 gusting 9 33.3
2019-Sep-15 22:00 072 5 gusting 11 33.3
2019-Sep-15 21:45 141 4 gusting 7 33.9
2019-Sep-15 21:30 087 6 gusting 11 33.3
2019-Sep-15 21:15 123 3 gusting 11 33.3
2019-Sep-15 21:01 134 3 gusting 13 32.8
2019-Sep-15 20:45 088 3 gusting 8 32.8
2019-Sep-15 20:30 066 5 gusting 11 32.8
2019-Sep-15 20:15 034 1 gusting 12 32.2
2019-Sep-15 20:00 153 5 gusting 11 32.8